Time,TemperatureF,DewpointF,PressureIn,WindDirection,WindDirectionDegrees,WindSpeedMPH,WindSpeedGustMPH,Humidity,HourlyPrecipIn,Conditions,Clouds,dailyrainin,SoftwareType,DateUTC
2013-05-03 00:01:00,65.1,47.9,30.14,East,90,0.0,0.0,54,0.00,,,0.00,WUHU216HW,2013-05-03 04:01:00,
2013-05-03 00:06:00,65.1,47.9,30.14,East,90,0.0,0.0,54,0.00,,,0.00,WUHU216HW,2013-05-03 04:06:00,
2013-05-03 00:11:00,65.1,47.9,30.14,East,90,0.0,0.0,54,0.00,,,0.00,WUHU216HW,2013-05-03 04:11:00,
2013-05-03 00:16:00,65.1,47.9,30.14,ENE,68,0.0,0.0,54,0.00,,,0.00,WUHU216HW,2013-05-03 04:16:00,
2013-05-03 00:21:00,64.5,47.4,30.14,ENE,68,0.0,0.0,54,0.00,,,0.00,WUHU216HW,2013-05-03 04:21:00,
2013-05-03 00:26:00,64.5,47.4,30.14,ENE,68,0.0,0.0,54,0.00,,,0.00,WUHU216HW,2013-05-03 04:26:00,
2013-05-03 00:31:00,64.5,47.9,30.15,NE,45,0.0,0.0,55,0.00,,,0.00,WUHU216HW,2013-05-03 04:31:00,
2013-05-03 00:36:00,64.0,47.4,30.15,ENE,68,0.0,0.0,55,0.00,,,0.00,WUHU216HW,2013-05-03 04:36:00,
2013-05-03 00:41:00,63.8,47.7,30.15,ENE,68,0.0,0.0,56,0.00,,,0.00,WUHU216HW,2013-05-03 04:41:00,
2013-05-03 00:46:00,63.5,47.4,30.15,ENE,68,0.0,0.0,56,0.00,,,0.00,WUHU216HW,2013-05-03 04:46:00,
2013-05-03 00:51:00,63.3,47.7,30.14,ENE,68,0.0,0.0,57,0.00,,,0.00,WUHU216HW,2013-05-03 04:51:00,
2013-05-03 00:56:00,63.1,47.5,30.14,ENE,68,0.0,0.0,57,0.00,,,0.00,WUHU216HW,2013-05-03 04:56:00,
2013-05-03 01:01:00,62.9,47.2,30.14,ENE,68,0.0,0.0,57,0.00,,,0.00,WUHU216HW,2013-05-03 05:01:00,
2013-05-03 01:06:00,62.6,47.1,30.14,ENE,68,0.0,0.0,57,0.00,,,0.00,WUHU216HW,2013-05-03 05:06:00,
2013-05-03 01:11:00,62.6,47.1,30.14,ENE,68,0.0,0.0,57,0.00,,,0.00,WUHU216HW,2013-05-03 05:11:00,
2013-05-03 01:16:00,62.4,47.4,30.14,ESE,113,0.0,0.0,58,0.00,,,0.00,WUHU216HW,2013-05-03 05:16:00,
2013-05-03 01:21:00,62.2,47.2,30.15,SE,135,0.0,0.0,58,0.00,,,0.00,WUHU216HW,2013-05-03 05:21:00,
2013-05-03 01:26:00,62.0,47.5,30.15,SE,135,0.0,2.2,59,0.00,,,0.00,WUHU216HW,2013-05-03 05:26:00,
2013-05-03 01:31:00,61.7,47.2,30.15,ESE,113,0.0,2.2,59,0.00,,,0.00,WUHU216HW,2013-05-03 05:31:00,
2013-05-03 01:36:00,61.7,47.7,30.15,ESE,113,0.0,0.0,60,0.00,,,0.00,WUHU216HW,2013-05-03 05:36:00,
2013-05-03 01:41:00,61.5,48.0,30.15,ESE,113,0.0,0.0,61,0.00,,,0.00,WUHU216HW,2013-05-03 05:41:00,
2013-05-03 01:46:00,61.3,47.8,30.15,ESE,113,0.0,0.0,61,0.00,,,0.00,WUHU216HW,2013-05-03 05:46:00,
2013-05-03 01:51:00,61.3,47.8,30.15,ESE,113,0.0,0.0,61,0.00,,,0.00,WUHU216HW,2013-05-03 05:51:00,
2013-05-03 01:56:00,61.3,48.0,30.15,ESE,113,0.0,0.0,62,0.00,,,0.00,WUHU216HW,2013-05-03 05:56:00,
2013-05-03 02:01:00,61.1,48.0,30.15,ESE,113,0.0,0.0,62,0.00,,,0.00,WUHU216HW,2013-05-03 06:01:00,
2013-05-03 02:06:00,61.1,48.0,30.15,ESE,113,0.0,0.0,62,0.00,,,0.00,WUHU216HW,2013-05-03 06:06:00,
2013-05-03 02:11:00,60.9,47.9,30.15,ESE,113,0.0,0.0,62,0.00,,,0.00,WUHU216HW,2013-05-03 06:11:00,
2013-05-03 02:16:00,60.9,47.9,30.15,ESE,113,0.0,0.0,62,0.00,,,0.00,WUHU216HW,2013-05-03 06:16:00,
2013-05-03 02:21:00,60.8,47.7,30.15,ESE,113,0.0,0.0,62,0.00,,,0.00,WUHU216HW,2013-05-03 06:21:00,
2013-05-03 02:26:00,60.8,47.7,30.15,ENE,68,0.0,0.0,62,0.00,,,0.00,WUHU216HW,2013-05-03 06:26:00,
2013-05-03 02:31:00,60.6,47.5,30.15,East,90,0.0,0.0,62,0.00,,,0.00,WUHU216HW,2013-05-03 06:31:00,
2013-05-03 02:36:00,60.4,47.4,30.15,East,90,0.0,0.0,62,0.00,,,0.00,WUHU216HW,2013-05-03 06:36:00,
2013-05-03 02:41:00,60.4,47.4,30.15,ESE,113,0.0,0.0,62,0.00,,,0.00,WUHU216HW,2013-05-03 06:41:00,
2013-05-03 02:46:00,60.4,47.8,30.15,SSE,158,0.0,0.0,63,0.00,,,0.00,WUHU216HW,2013-05-03 06:46:00,
2013-05-03 02:51:00,60.2,47.6,30.15,SSE,158,0.0,0.0,63,0.00,,,0.00,WUHU216HW,2013-05-03 06:51:00,
2013-05-03 02:56:00,60.2,47.6,30.15,ESE,113,0.0,0.0,63,0.00,,,0.00,WUHU216HW,2013-05-03 06:56:00,
2013-05-03 03:01:00,60.2,47.2,30.15,SE,135,1.7,1.7,62,0.00,,,0.00,WUHU216HW,2013-05-03 07:01:00,
2013-05-03 03:06:00,60.2,47.2,30.15,ENE,68,0.0,1.7,62,0.00,,,0.00,WUHU216HW,2013-05-03 07:06:00,
2013-05-03 03:11:00,60.0,47.0,30.15,ENE,68,0.0,0.6,62,0.00,,,0.00,WUHU216HW,2013-05-03 07:11:00,
2013-05-03 03:16:00,59.9,47.2,30.15,ESE,113,0.0,0.0,63,0.00,,,0.00,WUHU216HW,2013-05-03 07:16:00,
2013-05-03 03:21:00,59.9,47.2,30.15,ESE,113,0.0,0.0,63,0.00,,,0.00,WUHU216HW,2013-05-03 07:21:00,
2013-05-03 03:26:00,59.7,47.1,30.15,ESE,113,0.0,0.0,63,0.00,,,0.00,WUHU216HW,2013-05-03 07:26:00,
2013-05-03 03:31:00,59.7,46.9,30.15,North,0,0.0,0.0,63,0.00,,,0.00,WUHU216HW,2013-05-03 07:31:00,
2013-05-03 03:36:00,59.5,47.3,30.14,SSE,158,0.0,0.0,64,0.00,,,0.00,WUHU216HW,2013-05-03 07:36:00,
2013-05-03 03:41:00,59.3,47.1,30.15,SE,135,0.0,0.0,64,0.00,,,0.00,WUHU216HW,2013-05-03 07:41:00,
2013-05-03 03:46:00,59.3,47.1,30.15,SE,135,0.0,0.0,64,0.00,,,0.00,WUHU216HW,2013-05-03 07:46:00,
2013-05-03 03:51:00,59.1,46.9,30.15,SE,135,0.0,0.0,64,0.00,,,0.00,WUHU216HW,2013-05-03 07:51:00,
2013-05-03 03:56:00,59.1,46.9,30.15,ESE,113,0.0,0.0,64,0.00,,,0.00,WUHU216HW,2013-05-03 07:56:00,
2013-05-03 04:01:00,59.1,46.9,30.15,ESE,113,0.0,0.0,64,0.00,,,0.00,WUHU216HW,2013-05-03 08:01:00,
2013-05-03 04:06:00,59.0,46.7,30.14,ENE,68,0.0,0.0,64,0.00,,,0.00,WUHU216HW,2013-05-03 08:06:00,
2013-05-03 04:11:00,58.8,46.6,30.15,ENE,68,0.0,0.0,64,0.00,,,0.00,WUHU216HW,2013-05-03 08:11:00,
2013-05-03 04:16:00,58.8,46.6,30.15,NNE,23,0.0,0.0,64,0.00,,,0.00,WUHU216HW,2013-05-03 08:16:00,
2013-05-03 04:21:00,58.6,46.0,30.15,NNE,23,0.0,0.0,63,0.00,,,0.00,WUHU216HW,2013-05-03 08:21:00,
2013-05-03 04:26:00,58.4,46.4,30.15,SSE,158,0.0,0.0,63,0.00,,,0.00,WUHU216HW,2013-05-03 08:26:00,
2013-05-03 04:31:00,58.4,46.2,30.15,SSE,158,0.0,0.0,64,0.00,,,0.00,WUHU216HW,2013-05-03 08:31:00,
2013-05-03 04:36:00,58.2,46.1,30.15,SSE,158,0.0,0.0,64,0.00,,,0.00,WUHU216HW,2013-05-03 08:36:00,
2013-05-03 04:41:00,58.1,46.1,30.15,SSE,158,0.0,0.0,64,0.00,,,0.00,WUHU216HW,2013-05-03 08:41:00,
2013-05-03 04:46:00,58.1,45.9,30.15,SSE,158,0.0,0.0,64,0.00,,,0.00,WUHU216HW,2013-05-03 08:46:00,
2013-05-03 04:51:00,58.1,45.9,30.15,SE,135,0.0,0.0,64,0.00,,,0.00,WUHU216HW,2013-05-03 08:51:00,
2013-05-03 04:56:00,57.9,46.1,30.15,SE,135,0.0,0.0,65,0.00,,,0.00,WUHU216HW,2013-05-03 08:56:00,
2013-05-03 05:01:00,57.9,46.1,30.15,SE,135,0.0,0.0,65,0.00,,,0.00,WUHU216HW,2013-05-03 09:01:00,
2013-05-03 05:06:00,57.7,46.0,30.15,SE,135,0.0,0.0,65,0.00,,,0.00,WUHU216HW,2013-05-03 09:06:00,
2013-05-03 05:11:00,57.5,45.8,30.15,SE,135,0.0,0.0,65,0.00,,,0.00,WUHU216HW,2013-05-03 09:11:00,
2013-05-03 05:16:00,57.5,45.8,30.15,SE,135,0.0,0.0,65,0.00,,,0.00,WUHU216HW,2013-05-03 09:16:00,
2013-05-03 05:21:00,57.3,45.8,30.15,SE,135,0.0,0.0,65,0.00,,,0.00,WUHU216HW,2013-05-03 09:21:00,
2013-05-03 05:26:00,57.3,45.6,30.15,SE,135,0.0,0.0,65,0.00,,,0.00,WUHU216HW,2013-05-03 09:26:00,
2013-05-03 05:31:00,57.3,45.6,30.15,SE,135,0.0,0.0,65,0.00,,,0.00,WUHU216HW,2013-05-03 09:31:00,
2013-05-03 05:36:00,57.2,45.5,30.15,SE,135,0.0,0.0,65,0.00,,,0.00,WUHU216HW,2013-05-03 09:36:00,
2013-05-03 05:41:00,57.0,45.3,30.15,SE,135,0.0,0.0,65,0.00,,,0.00,WUHU216HW,2013-05-03 09:41:00,
2013-05-03 05:46:00,56.8,45.1,30.15,SE,135,0.0,0.0,65,0.00,,,0.00,WUHU216HW,2013-05-03 09:46:00,
2013-05-03 05:51:00,56.8,45.1,30.16,ESE,113,0.0,0.0,65,0.00,,,0.00,WUHU216HW,2013-05-03 09:51:00,
2013-05-03 05:56:00,56.6,44.9,30.16,ESE,113,0.0,0.0,65,0.00,,,0.00,WUHU216HW,2013-05-03 09:56:00,
2013-05-03 06:01:00,56.6,45.3,30.16,ESE,113,0.0,0.0,66,0.00,,,0.00,WUHU216HW,2013-05-03 10:01:00,
2013-05-03 06:06:00,56.6,45.3,30.16,ESE,113,0.0,0.0,66,0.00,,,0.00,WUHU216HW,2013-05-03 10:06:00,
2013-05-03 06:11:00,56.4,45.2,30.16,SSE,158,0.0,0.0,66,0.00,,,0.00,WUHU216HW,2013-05-03 10:11:00,
2013-05-03 06:16:00,56.3,45.0,30.16,ESE,113,0.0,0.0,66,0.00,,,0.00,WUHU216HW,2013-05-03 10:16:00,
2013-05-03 06:21:00,56.3,45.0,30.17,ESE,113,0.0,0.0,66,0.00,,,0.00,WUHU216HW,2013-05-03 10:21:00,
2013-05-03 06:26:00,56.3,45.0,30.17,ESE,113,0.0,0.0,66,0.00,,,0.00,WUHU216HW,2013-05-03 10:26:00,
2013-05-03 06:31:00,56.1,44.8,30.16,ESE,113,0.0,0.0,66,0.00,,,0.00,WUHU216HW,2013-05-03 10:31:00,
2013-05-03 06:36:00,56.1,45.2,30.17,ESE,113,0.0,0.0,67,0.00,,,0.00,WUHU216HW,2013-05-03 10:36:00,
2013-05-03 06:41:00,56.1,45.2,30.17,ESE,113,0.0,0.0,67,0.00,,,0.00,WUHU216HW,2013-05-03 10:41:00,
2013-05-03 06:46:00,56.1,45.6,30.17,ESE,113,0.0,0.0,68,0.00,,,0.00,WUHU216HW,2013-05-03 10:46:00,
2013-05-03 06:51:00,56.1,45.6,30.17,ESE,113,0.0,0.0,68,0.00,,,0.00,WUHU216HW,2013-05-03 10:51:00,
2013-05-03 06:56:00,56.1,45.6,30.17,ESE,113,0.0,0.0,68,0.00,,,0.00,WUHU216HW,2013-05-03 10:56:00,
2013-05-03 07:01:00,56.1,45.6,30.17,ESE,113,0.0,0.0,68,0.00,,,0.00,WUHU216HW,2013-05-03 11:01:00,
2013-05-03 07:06:00,56.1,45.6,30.17,ESE,113,0.0,0.0,68,0.00,,,0.00,WUHU216HW,2013-05-03 11:06:00,
2013-05-03 07:11:00,56.1,45.6,30.17,ESE,113,0.0,0.0,68,0.00,,,0.00,WUHU216HW,2013-05-03 11:11:00,
2013-05-03 07:16:00,55.9,45.6,30.17,East,90,0.0,0.0,68,0.00,,,0.00,WUHU216HW,2013-05-03 11:16:00,
2013-05-03 07:21:00,56.1,45.6,30.17,East,90,0.0,0.0,68,0.00,,,0.00,WUHU216HW,2013-05-03 11:21:00,
2013-05-03 07:26:00,55.9,45.5,30.17,NNE,23,0.0,0.0,68,0.00,,,0.00,WUHU216HW,2013-05-03 11:26:00,
2013-05-03 07:31:00,55.9,45.5,30.17,SE,135,0.0,0.0,68,0.00,,,0.00,WUHU216HW,2013-05-03 11:31:00,
2013-05-03 07:36:00,55.9,45.5,30.17,SE,135,0.0,0.0,68,0.00,,,0.00,WUHU216HW,2013-05-03 11:36:00,
2013-05-03 07:41:00,56.1,45.6,30.17,SE,135,0.0,0.0,68,0.00,,,0.00,WUHU216HW,2013-05-03 11:41:00,
2013-05-03 07:46:00,56.1,45.6,30.17,SE,135,0.0,0.0,68,0.00,,,0.00,WUHU216HW,2013-05-03 11:46:00,
2013-05-03 07:51:00,56.1,45.6,30.17,SE,135,0.0,0.0,68,0.00,,,0.00,WUHU216HW,2013-05-03 11:51:00,
2013-05-03 07:56:00,56.1,45.6,30.17,ESE,113,0.0,0.0,68,0.00,,,0.00,WUHU216HW,2013-05-03 11:56:00,
2013-05-03 08:01:00,56.1,45.2,30.17,ESE,113,0.0,0.0,67,0.00,,,0.00,WUHU216HW,2013-05-03 12:01:00,
2013-05-03 08:06:00,56.1,45.2,30.17,ESE,113,0.0,0.0,67,0.00,,,0.00,WUHU216HW,2013-05-03 12:06:00,
2013-05-03 08:11:00,56.1,45.2,30.17,ESE,113,0.0,0.0,67,0.00,,,0.00,WUHU216HW,2013-05-03 12:11:00,
2013-05-03 08:16:00,56.1,45.2,30.17,ESE,113,0.0,0.0,67,0.00,,,0.00,WUHU216HW,2013-05-03 12:16:00,
2013-05-03 08:21:00,56.1,45.2,30.17,ESE,113,0.0,0.0,67,0.00,,,0.00,WUHU216HW,2013-05-03 12:21:00,
2013-05-03 08:26:00,56.3,45.0,30.17,SSE,158,0.0,0.0,66,0.00,,,0.00,WUHU216HW,2013-05-03 12:26:00,
2013-05-03 08:31:00,56.6,45.2,30.17,ESE,113,0.0,0.0,65,0.00,,,0.00,WUHU216HW,2013-05-03 12:31:00,
2013-05-03 08:36:00,56.8,45.1,30.17,SE,135,0.0,1.7,65,0.00,,,0.00,WUHU216HW,2013-05-03 12:36:00,
2013-05-03 08:41:00,57.3,45.2,30.17,SSE,158,0.0,1.7,65,0.00,,,0.00,WUHU216HW,2013-05-03 12:41:00,
2013-05-03 08:46:00,57.9,45.7,30.17,SE,135,2.0,2.0,64,0.00,,,0.00,WUHU216HW,2013-05-03 12:46:00,
2013-05-03 08:51:00,58.4,45.3,30.18,SSE,158,0.0,2.0,62,0.00,,,0.00,WUHU216HW,2013-05-03 12:51:00,
2013-05-03 08:56:00,58.8,45.3,30.17,ESE,113,1.1,1.7,61,0.00,,,0.00,WUHU216HW,2013-05-03 12:56:00,
2013-05-03 09:01:00,59.3,45.5,30.18,South,180,0.0,1.1,60,0.00,,,0.00,WUHU216HW,2013-05-03 13:01:00,
2013-05-03 09:06:00,59.9,45.5,30.17,SE,135,0.0,0.0,59,0.00,,,0.00,WUHU216HW,2013-05-03 13:06:00,
2013-05-03 09:11:00,60.2,45.4,30.17,WSW,248,0.6,3.8,58,0.00,,,0.00,WUHU216HW,2013-05-03 13:11:00,
2013-05-03 09:16:00,60.9,46.1,30.17,East,90,0.0,3.8,58,0.00,,,0.00,WUHU216HW,2013-05-03 13:16:00,
2013-05-03 09:21:00,61.5,46.6,30.17,SSE,158,0.8,0.8,58,0.00,,,0.00,WUHU216HW,2013-05-03 13:21:00,
2013-05-03 09:26:00,62.0,46.6,30.17,ESE,113,1.3,1.3,57,0.00,,,0.00,WUHU216HW,2013-05-03 13:26:00,
2013-05-03 09:31:00,62.7,46.7,30.17,South,180,0.0,2.0,56,0.00,,,0.00,WUHU216HW,2013-05-03 13:31:00,
2013-05-03 09:36:00,63.3,46.2,30.18,East,90,1.1,2.6,54,0.00,,,0.00,WUHU216HW,2013-05-03 13:36:00,
2013-05-03 09:41:00,64.0,46.9,30.17,East,90,1.1,2.6,54,0.00,,,0.00,WUHU216HW,2013-05-03 13:41:00,
2013-05-03 09:46:00,64.5,46.9,30.17,SE,135,0.0,2.6,53,0.00,,,0.00,WUHU216HW,2013-05-03 13:46:00,
2013-05-03 09:51:00,65.3,46.2,30.17,WNW,293,0.0,1.3,50,0.00,,,0.00,WUHU216HW,2013-05-03 13:51:00,
2013-05-03 09:56:00,65.8,46.1,30.17,NNE,23,0.0,2.0,49,0.00,,,0.00,WUHU216HW,2013-05-03 13:56:00,
2013-05-03 10:01:00,66.5,44.9,30.17,SSE,158,0.0,3.1,46,0.00,,,0.00,WUHU216HW,2013-05-03 14:01:00,
2013-05-03 10:06:00,67.1,45.5,30.17,SE,135,4.6,4.6,46,0.00,,,0.00,WUHU216HW,2013-05-03 14:06:00,
2013-05-03 10:11:00,67.6,44.8,30.17,SSE,158,1.5,4.6,44,0.00,,,0.00,WUHU216HW,2013-05-03 14:11:00,
2013-05-03 10:16:00,68.1,44.1,30.17,ENE,68,0.0,1.5,42,0.00,,,0.00,WUHU216HW,2013-05-03 14:16:00,
2013-05-03 10:21:00,68.7,44.6,30.17,SE,135,1.7,3.5,42,0.00,,,0.00,WUHU216HW,2013-05-03 14:21:00,
2013-05-03 10:26:00,69.0,44.3,30.17,ESE,113,0.0,3.5,41,0.00,,,0.00,WUHU216HW,2013-05-03 14:26:00,
2013-05-03 10:31:00,69.4,44.0,30.16,ESE,113,0.0,4.2,40,0.00,,,0.00,WUHU216HW,2013-05-03 14:31:00,
2013-05-03 10:36:00,69.9,43.8,30.16,East,90,0.0,4.2,39,0.00,,,0.00,WUHU216HW,2013-05-03 14:36:00,
2013-05-03 10:41:00,70.1,43.2,30.16,SSE,158,2.9,2.9,38,0.00,,,0.00,WUHU216HW,2013-05-03 14:41:00,
2013-05-03 10:46:00,70.7,43.7,30.16,ESE,113,1.5,2.9,38,0.00,,,0.00,WUHU216HW,2013-05-03 14:46:00,
2013-05-03 10:51:00,70.7,42.2,30.16,ESE,113,3.5,3.5,36,0.00,,,0.00,WUHU216HW,2013-05-03 14:51:00,
2013-05-03 10:56:00,70.7,41.5,30.16,NNE,23,0.0,3.5,35,0.00,,,0.00,WUHU216HW,2013-05-03 14:56:00,
2013-05-03 11:01:00,70.8,40.9,30.16,ESE,113,3.5,3.8,34,0.00,,,0.00,WUHU216HW,2013-05-03 15:01:00,
2013-05-03 11:06:00,71.2,42.0,30.16,ESE,113,3.3,6.7,34,0.00,,,0.00,WUHU216HW,2013-05-03 15:06:00,
2013-05-03 11:11:00,71.4,41.4,30.15,North,0,0.0,6.7,34,0.00,,,0.00,WUHU216HW,2013-05-03 15:11:00,
2013-05-03 11:16:00,71.4,41.6,30.15,NE,45,1.3,4.6,34,0.00,,,0.00,WUHU216HW,2013-05-03 15:16:00,
2013-05-03 11:21:00,71.4,41.4,30.15,ESE,113,0.0,1.5,34,0.00,,,0.00,WUHU216HW,2013-05-03 15:21:00,
2013-05-03 11:26:00,71.7,42.4,30.15,SSE,158,2.6,2.6,35,0.00,,,0.00,WUHU216HW,2013-05-03 15:26:00,
2013-05-03 11:31:00,72.3,42.9,30.15,ESE,113,0.0,3.5,35,0.00,,,0.00,WUHU216HW,2013-05-03 15:31:00,
2013-05-03 11:36:00,72.6,41.7,30.15,ESE,113,4.0,4.0,33,0.00,,,0.00,WUHU216HW,2013-05-03 15:36:00,
2013-05-03 11:41:00,73.0,42.0,30.15,NNW,338,0.0,4.0,33,0.00,,,0.00,WUHU216HW,2013-05-03 15:41:00,
2013-05-03 11:46:00,73.5,41.7,30.14,ESE,113,0.0,2.6,32,0.00,,,0.00,WUHU216HW,2013-05-03 15:46:00,
2013-05-03 11:51:00,73.9,42.0,30.14,SE,135,0.0,2.9,32,0.00,,,0.00,WUHU216HW,2013-05-03 15:51:00,
2013-05-03 11:56:00,74.6,41.9,30.14,South,180,2.4,2.9,31,0.00,,,0.00,WUHU216HW,2013-05-03 15:56:00,
2013-05-03 12:01:00,75.0,40.6,30.14,SE,135,3.1,3.1,30,0.00,,,0.00,WUHU216HW,2013-05-03 16:01:00,
2013-05-03 12:06:00,75.5,41.0,30.14,SE,135,3.3,4.9,29,0.00,,,0.00,WUHU216HW,2013-05-03 16:06:00,
2013-05-03 12:11:00,75.9,41.3,30.14,ENE,68,0.0,5.8,29,0.00,,,0.00,WUHU216HW,2013-05-03 16:11:00,
2013-05-03 12:16:00,76.4,39.7,30.13,ESE,113,1.3,5.8,27,0.00,,,0.00,WUHU216HW,2013-05-03 16:16:00,
2013-05-03 12:21:00,76.8,39.0,30.13,SE,135,2.4,3.8,26,0.00,,,0.00,WUHU216HW,2013-05-03 16:21:00,
2013-05-03 12:26:00,77.1,39.3,30.13,South,180,2.0,3.5,26,0.00,,,0.00,WUHU216HW,2013-05-03 16:26:00,
2013-05-03 12:31:00,77.3,39.4,30.13,East,90,0.0,4.0,26,0.00,,,0.00,WUHU216HW,2013-05-03 16:31:00,
2013-05-03 12:36:00,77.3,37.5,30.13,SSE,158,5.5,5.5,25,0.00,,,0.00,WUHU216HW,2013-05-03 16:36:00,
2013-05-03 12:41:00,77.3,37.3,30.13,ESE,113,3.3,5.5,24,0.00,,,0.00,WUHU216HW,2013-05-03 16:41:00,
2013-05-03 12:46:00,77.5,37.5,30.12,East,90,0.0,4.2,24,0.00,,,0.00,WUHU216HW,2013-05-03 16:46:00,
2013-05-03 12:51:00,77.7,36.6,30.12,East,90,0.0,3.8,23,0.00,,,0.00,WUHU216HW,2013-05-03 16:51:00,
2013-05-03 12:56:00,78.0,35.8,30.12,ESE,113,0.6,3.5,22,0.00,,,0.00,WUHU216HW,2013-05-03 16:56:00,
2013-05-03 13:01:00,78.4,36.1,30.12,SW,225,0.0,4.6,22,0.00,,,0.00,WUHU216HW,2013-05-03 17:01:00,
2013-05-03 13:06:00,78.4,36.2,30.12,SE,135,3.8,4.6,22,0.00,,,0.00,WUHU216HW,2013-05-03 17:06:00,
2013-05-03 13:11:00,78.4,35.0,30.12,North,0,0.0,4.0,21,0.00,,,0.00,WUHU216HW,2013-05-03 17:11:00,
2013-05-03 13:16:00,78.4,36.1,30.12,SE,135,3.5,4.0,22,0.00,,,0.00,WUHU216HW,2013-05-03 17:16:00,
2013-05-03 13:21:00,78.6,35.2,30.12,SE,135,1.5,3.5,21,0.00,,,0.00,WUHU216HW,2013-05-03 17:21:00,
2013-05-03 13:26:00,78.4,32.7,30.12,East,90,3.5,4.4,19,0.00,,,0.00,WUHU216HW,2013-05-03 17:26:00,
2013-05-03 13:31:00,78.4,32.7,30.12,SE,135,1.3,4.4,19,0.00,,,0.00,WUHU216HW,2013-05-03 17:31:00,
2013-05-03 13:36:00,78.4,32.7,30.12,SSE,158,4.4,4.4,19,0.00,,,0.00,WUHU216HW,2013-05-03 17:36:00,
2013-05-03 13:41:00,78.9,33.1,30.11,SE,135,3.3,4.4,19,0.00,,,0.00,WUHU216HW,2013-05-03 17:41:00,
2013-05-03 13:46:00,79.1,33.3,30.11,SSE,158,2.6,3.5,19,0.00,,,0.00,WUHU216HW,2013-05-03 17:46:00,
2013-05-03 13:51:00,79.7,33.8,30.11,NNE,23,0.0,3.5,19,0.00,,,0.00,WUHU216HW,2013-05-03 17:51:00,
2013-05-03 13:56:00,80.2,34.2,30.11,SSE,158,3.8,3.8,19,0.00,,,0.00,WUHU216HW,2013-05-03 17:56:00,
2013-05-03 14:01:00,80.4,34.3,30.11,ESE,113,2.6,4.9,19,0.00,,,0.00,WUHU216HW,2013-05-03 18:01:00,
2013-05-03 14:06:00,80.7,34.6,30.10,SSE,158,0.8,4.9,19,0.00,,,0.00,WUHU216HW,2013-05-03 18:06:00,
2013-05-03 14:11:00,80.9,34.7,30.11,South,180,2.6,5.5,19,0.00,,,0.00,WUHU216HW,2013-05-03 18:11:00,
2013-05-03 14:16:00,80.7,34.6,30.10,WSW,248,0.0,5.5,19,0.00,,,0.00,WUHU216HW,2013-05-03 18:16:00,
2013-05-03 14:21:00,80.9,34.7,30.10,NE,45,4.0,4.0,19,0.00,,,0.00,WUHU216HW,2013-05-03 18:21:00,
2013-05-03 14:26:00,81.1,34.9,30.10,WNW,293,0.0,4.0,19,0.00,,,0.00,WUHU216HW,2013-05-03 18:26:00,
2013-05-03 14:31:00,81.1,34.9,30.11,SE,135,0.0,2.9,19,0.00,,,0.00,WUHU216HW,2013-05-03 18:31:00,
2013-05-03 14:36:00,80.7,34.6,30.10,SSE,158,1.1,2.9,19,0.00,,,0.00,WUHU216HW,2013-05-03 18:36:00,
2013-05-03 14:41:00,80.4,34.3,30.10,SSE,158,4.9,4.9,19,0.00,,,0.00,WUHU216HW,2013-05-03 18:41:00,
2013-05-03 14:46:00,80.4,34.3,30.10,ESE,113,4.0,6.2,19,0.00,,,0.00,WUHU216HW,2013-05-03 18:46:00,
2013-05-03 14:51:00,80.7,34.6,30.09,ESE,113,1.1,6.2,19,0.00,,,0.00,WUHU216HW,2013-05-03 18:51:00,
2013-05-03 14:56:00,80.9,34.7,30.10,NE,45,0.8,6.2,19,0.00,,,0.00,WUHU216HW,2013-05-03 18:56:00,
2013-05-03 15:01:00,81.3,35.1,30.09,NW,315,0.6,6.2,19,0.00,,,0.00,WUHU216HW,2013-05-03 19:01:00,
2013-05-03 15:06:00,81.8,35.5,30.09,SSW,203,3.8,3.8,19,0.00,,,0.00,WUHU216HW,2013-05-03 19:06:00,
2013-05-03 15:11:00,81.8,35.5,30.09,West,270,2.4,6.4,19,0.00,,,0.00,WUHU216HW,2013-05-03 19:11:00,
2013-05-03 15:16:00,81.8,35.5,30.09,SE,135,2.0,6.4,19,0.00,,,0.00,WUHU216HW,2013-05-03 19:16:00,
2013-05-03 15:21:00,82.5,36.1,30.09,ENE,68,0.0,4.9,19,0.00,,,0.00,WUHU216HW,2013-05-03 19:21:00,
2013-05-03 15:26:00,83.1,36.6,30.08,South,180,0.8,4.9,19,0.00,,,0.00,WUHU216HW,2013-05-03 19:26:00,
2013-05-03 15:31:00,83.8,37.1,30.07,SSW,203,0.0,3.8,19,0.00,,,0.00,WUHU216HW,2013-05-03 19:31:00,
2013-05-03 15:36:00,83.8,37.1,30.07,SSW,203,2.4,4.2,19,0.00,,,0.00,WUHU216HW,2013-05-03 19:36:00,
2013-05-03 15:41:00,83.8,37.1,30.07,South,180,0.0,4.2,19,0.00,,,0.00,WUHU216HW,2013-05-03 19:41:00,
2013-05-03 15:46:00,84.3,37.5,30.07,SE,135,0.0,4.0,19,0.00,,,0.00,WUHU216HW,2013-05-03 19:46:00,
2013-05-03 15:51:00,84.7,37.9,30.07,East,90,0.0,4.0,19,0.00,,,0.00,WUHU216HW,2013-05-03 19:51:00,
2013-05-03 15:56:00,85.4,38.4,30.07,East,90,2.2,2.4,19,0.00,,,0.00,WUHU216HW,2013-05-03 19:56:00,
2013-05-03 16:01:00,85.6,38.6,30.06,ENE,68,1.7,3.3,19,0.00,,,0.00,WUHU216HW,2013-05-03 20:01:00,
2013-05-03 16:06:00,85.8,38.8,30.06,SSE,158,3.3,4.2,19,0.00,,,0.00,WUHU216HW,2013-05-03 20:06:00,
2013-05-03 16:11:00,85.6,38.6,30.07,South,180,4.4,4.4,19,0.00,,,0.00,WUHU216HW,2013-05-03 20:11:00,
2013-05-03 16:16:00,85.6,38.6,30.06,SE,135,1.5,5.5,19,0.00,,,0.00,WUHU216HW,2013-05-03 20:16:00,
2013-05-03 16:21:00,85.6,38.6,30.06,ESE,113,1.5,5.5,19,0.00,,,0.00,WUHU216HW,2013-05-03 20:21:00,
2013-05-03 16:26:00,85.6,38.6,30.06,SSE,158,0.0,6.4,19,0.00,,,0.00,WUHU216HW,2013-05-03 20:26:00,
2013-05-03 16:31:00,85.6,38.6,30.06,NNE,23,3.5,6.4,19,0.00,,,0.00,WUHU216HW,2013-05-03 20:31:00,
2013-05-03 16:36:00,85.4,38.4,30.06,WSW,248,0.0,4.4,19,0.00,,,0.00,WUHU216HW,2013-05-03 20:36:00,
2013-05-03 16:41:00,85.4,38.4,30.06,SSE,158,0.0,3.5,19,0.00,,,0.00,WUHU216HW,2013-05-03 20:41:00,
2013-05-03 16:46:00,84.9,38.0,30.06,ESE,113,0.0,3.8,19,0.00,,,0.00,WUHU216HW,2013-05-03 20:46:00,
2013-05-03 16:51:00,85.4,38.4,30.05,SW,225,0.0,3.8,19,0.00,,,0.00,WUHU216HW,2013-05-03 20:51:00,
2013-05-03 16:56:00,85.4,38.4,30.05,ESE,113,1.5,2.4,19,0.00,,,0.00,WUHU216HW,2013-05-03 20:56:00,
2013-05-03 17:01:00,85.2,38.3,30.05,SE,135,3.5,3.5,19,0.00,,,0.00,WUHU216HW,2013-05-03 21:01:00,
2013-05-03 17:06:00,84.7,37.9,30.05,SSE,158,3.1,4.0,19,0.00,,,0.00,WUHU216HW,2013-05-03 21:06:00,
2013-05-03 17:11:00,84.3,37.5,30.05,NNE,23,2.6,4.0,19,0.00,,,0.00,WUHU216HW,2013-05-03 21:11:00,
2013-05-03 17:16:00,84.3,37.5,30.05,ESE,113,0.0,8.5,19,0.00,,,0.00,WUHU216HW,2013-05-03 21:16:00,
2013-05-03 17:21:00,84.3,37.5,30.05,SE,135,0.0,8.5,19,0.00,,,0.00,WUHU216HW,2013-05-03 21:21:00,
2013-05-03 17:26:00,84.2,37.5,30.05,East,90,4.2,4.2,19,0.00,,,0.00,WUHU216HW,2013-05-03 21:26:00,
2013-05-03 17:31:00,83.8,37.1,30.05,South,180,0.0,5.8,19,0.00,,,0.00,WUHU216HW,2013-05-03 21:31:00,
2013-05-03 17:36:00,83.3,36.7,30.05,SE,135,2.2,5.8,19,0.00,,,0.00,WUHU216HW,2013-05-03 21:36:00,
2013-05-03 17:41:00,83.1,36.6,30.05,North,0,3.5,5.8,19,0.00,,,0.00,WUHU216HW,2013-05-03 21:41:00,
2013-05-03 17:46:00,82.7,36.2,30.05,SE,135,2.4,7.1,19,0.00,,,0.00,WUHU216HW,2013-05-03 21:46:00,
2013-05-03 17:51:00,82.7,36.2,30.05,NNE,23,3.3,7.1,19,0.00,,,0.00,WUHU216HW,2013-05-03 21:51:00,
2013-05-03 17:56:00,82.4,36.0,30.05,North,0,0.0,4.0,19,0.00,,,0.00,WUHU216HW,2013-05-03 21:56:00,
2013-05-03 18:01:00,81.6,35.3,30.05,NW,315,5.5,5.5,19,0.00,,,0.00,WUHU216HW,2013-05-03 22:01:00,
2013-05-03 18:06:00,81.1,34.9,30.05,SE,135,2.2,5.5,19,0.00,,,0.00,WUHU216HW,2013-05-03 22:06:00,
2013-05-03 18:11:00,80.6,34.5,30.05,NE,45,0.0,3.8,19,0.00,,,0.00,WUHU216HW,2013-05-03 22:11:00,
2013-05-03 18:16:00,80.0,34.0,30.05,WNW,293,2.9,3.8,19,0.00,,,0.00,WUHU216HW,2013-05-03 22:16:00,
2013-05-03 18:21:00,79.5,33.6,30.05,ESE,113,0.0,3.1,19,0.00,,,0.00,WUHU216HW,2013-05-03 22:21:00,
2013-05-03 18:26:00,78.9,33.1,30.05,SSE,158,0.0,2.2,19,0.00,,,0.00,WUHU216HW,2013-05-03 22:26:00,
2013-05-03 18:31:00,78.4,32.7,30.05,SE,135,1.7,1.7,19,0.00,,,0.00,WUHU216HW,2013-05-03 22:31:00,
2013-05-03 18:36:00,78.2,32.5,30.05,ENE,68,0.0,2.9,19,0.00,,,0.00,WUHU216HW,2013-05-03 22:36:00,
2013-05-03 18:41:00,77.9,32.3,30.05,SE,135,0.0,2.9,19,0.00,,,0.00,WUHU216HW,2013-05-03 22:41:00,
2013-05-03 18:46:00,77.9,32.3,30.05,ESE,113,2.2,2.4,19,0.00,,,0.00,WUHU216HW,2013-05-03 22:46:00,
2013-05-03 18:51:00,77.7,32.1,30.05,SE,135,2.4,4.0,19,0.00,,,0.00,WUHU216HW,2013-05-03 22:51:00,
2013-05-03 18:56:00,77.7,32.1,30.05,ESE,113,0.4,4.0,19,0.00,,,0.00,WUHU216HW,2013-05-03 22:56:00,
2013-05-03 19:01:00,77.3,31.8,30.05,NW,315,0.0,1.5,19,0.00,,,0.00,WUHU216HW,2013-05-03 23:01:00,
2013-05-03 19:06:00,77.3,31.8,30.05,SSE,158,0.0,0.0,19,0.00,,,0.00,WUHU216HW,2013-05-03 23:06:00,
2013-05-03 19:11:00,77.0,31.5,30.05,East,90,2.2,2.6,19,0.00,,,0.00,WUHU216HW,2013-05-03 23:11:00,
2013-05-03 19:16:00,76.6,31.2,30.05,SE,135,0.8,2.9,19,0.00,,,0.00,WUHU216HW,2013-05-03 23:16:00,
2013-05-03 19:21:00,76.4,31.1,30.05,SE,135,0.0,2.9,19,0.00,,,0.00,WUHU216HW,2013-05-03 23:21:00,
2013-05-03 19:26:00,76.1,30.8,30.05,SE,135,0.0,1.5,19,0.00,,,0.00,WUHU216HW,2013-05-03 23:26:00,
2013-05-03 19:31:00,75.5,30.3,30.06,SSE,158,9.1,9.1,19,0.00,,,0.00,WUHU216HW,2013-05-03 23:31:00,
2013-05-03 19:36:00,75.3,30.1,30.05,South,180,1.1,9.1,19,0.00,,,0.00,WUHU216HW,2013-05-03 23:36:00,
2013-05-03 19:41:00,74.8,29.7,30.06,SSE,158,2.4,4.9,19,0.00,,,0.00,WUHU216HW,2013-05-03 23:41:00,
2013-05-03 19:46:00,74.3,29.3,30.06,SE,135,0.0,5.1,19,0.00,,,0.00,WUHU216HW,2013-05-03 23:46:00,
2013-05-03 19:51:00,74.1,29.2,30.06,ENE,68,0.0,5.1,19,0.00,,,0.00,WUHU216HW,2013-05-03 23:51:00,
2013-05-03 19:56:00,73.5,28.7,30.07,SE,135,0.0,4.0,19,0.00,,,0.00,WUHU216HW,2013-05-03 23:56:00,
2013-05-03 20:01:00,73.5,28.7,30.06,SE,135,0.8,2.2,19,0.00,,,0.00,WUHU216HW,2013-05-04 00:01:00,
2013-05-03 20:06:00,73.0,28.3,30.07,SSE,158,3.1,12.7,19,0.00,,,0.00,WUHU216HW,2013-05-04 00:06:00,
2013-05-03 20:11:00,72.6,27.9,30.07,SE,135,1.1,12.7,19,0.00,,,0.00,WUHU216HW,2013-05-04 00:11:00,
2013-05-03 20:16:00,72.3,27.7,30.07,SSE,158,0.0,4.9,19,0.00,,,0.00,WUHU216HW,2013-05-04 00:16:00,
2013-05-03 20:21:00,71.9,27.4,30.07,SE,135,0.0,3.8,19,0.00,,,0.00,WUHU216HW,2013-05-04 00:21:00,
2013-05-03 20:26:00,71.7,27.2,30.07,ESE,113,0.0,4.0,19,0.00,,,0.00,WUHU216HW,2013-05-04 00:26:00,
2013-05-03 20:31:00,71.6,27.1,30.07,South,180,3.8,4.0,19,0.00,,,0.00,WUHU216HW,2013-05-04 00:31:00,
2013-05-03 20:36:00,71.2,26.8,30.08,SSE,158,4.9,4.9,19,0.00,,,0.00,WUHU216HW,2013-05-04 00:36:00,
2013-05-03 20:41:00,71.0,26.6,30.07,SSE,158,1.3,5.1,19,0.00,,,0.00,WUHU216HW,2013-05-04 00:41:00,
2013-05-03 20:46:00,70.7,26.4,30.08,ESE,113,0.0,5.1,19,0.00,,,0.00,WUHU216HW,2013-05-04 00:46:00,
2013-05-03 20:51:00,70.5,26.2,30.08,NNE,23,2.0,5.8,19,0.00,,,0.00,WUHU216HW,2013-05-04 00:51:00,
2013-05-03 20:56:00,70.3,26.0,30.08,SE,135,2.4,5.8,19,0.00,,,0.00,WUHU216HW,2013-05-04 00:56:00,
2013-05-03 21:01:00,70.1,25.9,30.08,ENE,68,0.0,2.4,19,0.00,,,0.00,WUHU216HW,2013-05-04 01:01:00,
2013-05-03 21:06:00,69.9,29.1,30.08,SE,135,0.0,2.4,22,0.00,,,0.00,WUHU216HW,2013-05-04 01:06:00,
2013-05-03 21:11:00,69.9,29.1,30.08,SE,135,1.1,1.5,22,0.00,,,0.00,WUHU216HW,2013-05-04 01:11:00,
2013-05-03 21:16:00,69.6,28.8,30.09,SE,135,0.0,4.6,22,0.00,,,0.00,WUHU216HW,2013-05-04 01:16:00,
2013-05-03 21:21:00,69.4,28.6,30.08,WSW,248,0.0,4.6,22,0.00,,,0.00,WUHU216HW,2013-05-04 01:21:00,
2013-05-03 21:26:00,69.2,28.5,30.09,SSE,158,0.0,2.4,22,0.00,,,0.00,WUHU216HW,2013-05-04 01:26:00,
2013-05-03 21:31:00,69.0,29.3,30.09,SE,135,0.0,2.4,23,0.00,,,0.00,WUHU216HW,2013-05-04 01:31:00,
2013-05-03 21:36:00,68.9,30.2,30.09,NNE,23,0.0,2.0,24,0.00,,,0.00,WUHU216HW,2013-05-04 01:36:00,
2013-05-03 21:41:00,68.7,31.0,30.09,ESE,113,0.0,0.0,25,0.00,,,0.00,WUHU216HW,2013-05-04 01:41:00,
2013-05-03 21:46:00,68.3,30.7,30.09,ESE,113,0.0,2.9,25,0.00,,,0.00,WUHU216HW,2013-05-04 01:46:00,
2013-05-03 21:51:00,68.1,30.6,30.09,SE,135,0.0,2.9,25,0.00,,,0.00,WUHU216HW,2013-05-04 01:51:00,
2013-05-03 21:56:00,68.0,30.3,30.09,SE,135,0.0,1.5,25,0.00,,,0.00,WUHU216HW,2013-05-04 01:56:00,
2013-05-03 22:01:00,67.8,31.2,30.09,ESE,113,0.0,2.6,26,0.00,,,0.00,WUHU216HW,2013-05-04 02:01:00,
2013-05-03 22:06:00,67.4,30.9,30.09,ENE,68,0.0,2.6,26,0.00,,,0.00,WUHU216HW,2013-05-04 02:06:00,
2013-05-03 22:11:00,67.2,30.8,30.09,SE,135,0.0,2.0,26,0.00,,,0.00,WUHU216HW,2013-05-04 02:11:00,
2013-05-03 22:16:00,67.1,30.7,30.09,SE,135,0.0,0.6,26,0.00,,,0.00,WUHU216HW,2013-05-04 02:16:00,
2013-05-03 22:21:00,66.9,32.5,30.09,SE,135,0.0,0.6,28,0.00,,,0.00,WUHU216HW,2013-05-04 02:21:00,
2013-05-03 22:26:00,66.7,32.3,30.09,SE,135,0.0,3.5,28,0.00,,,0.00,WUHU216HW,2013-05-04 02:26:00,
2013-05-03 22:31:00,66.5,33.2,30.09,NW,315,2.4,3.5,29,0.00,,,0.00,WUHU216HW,2013-05-04 02:31:00,
2013-05-03 22:36:00,66.3,33.1,30.10,ESE,113,1.3,2.4,29,0.00,,,0.00,WUHU216HW,2013-05-04 02:36:00,
2013-05-03 22:41:00,66.2,33.9,30.10,ESE,113,0.4,2.2,30,0.00,,,0.00,WUHU216HW,2013-05-04 02:41:00,
2013-05-03 22:46:00,65.8,33.6,30.10,NNE,23,0.0,5.1,30,0.00,,,0.00,WUHU216HW,2013-05-04 02:46:00,
2013-05-03 22:51:00,65.8,33.6,30.10,SE,135,0.6,5.1,30,0.00,,,0.00,WUHU216HW,2013-05-04 02:51:00,
2013-05-03 22:56:00,65.4,33.3,30.10,SE,135,0.0,1.5,30,0.00,,,0.00,WUHU216HW,2013-05-04 02:56:00,
2013-05-03 23:01:00,65.3,33.8,30.10,WNW,293,0.0,0.0,31,0.00,,,0.00,WUHU216HW,2013-05-04 03:01:00,
2013-05-03 23:06:00,65.1,34.4,30.10,SE,135,0.0,1.1,32,0.00,,,0.00,WUHU216HW,2013-05-04 03:06:00,
2013-05-03 23:11:00,64.9,34.2,30.09,SSE,158,0.0,3.1,32,0.00,,,0.00,WUHU216HW,2013-05-04 03:11:00,
2013-05-03 23:16:00,64.7,34.8,30.09,ESE,113,1.7,3.1,33,0.00,,,0.00,WUHU216HW,2013-05-04 03:16:00,
2013-05-03 23:21:00,64.5,34.6,30.09,ESE,113,0.0,1.7,33,0.00,,,0.00,WUHU216HW,2013-05-04 03:21:00,
2013-05-03 23:27:00,64.5,34.6,30.09,ESE,113,0.0,0.0,33,0.00,,,0.00,WUHU216HW,2013-05-04 03:27:00,
2013-05-03 23:32:00,64.2,34.3,30.09,SE,135,0.0,1.3,33,0.00,,,0.00,WUHU216HW,2013-05-04 03:32:00,
2013-05-03 23:36:00,64.2,35.0,30.09,SE,135,0.0,1.3,34,0.00,,,0.00,WUHU216HW,2013-05-04 03:36:00,
2013-05-03 23:42:00,63.8,34.7,30.10,ESE,113,0.8,1.3,34,0.00,,,0.00,WUHU216HW,2013-05-04 03:42:00,
2013-05-03 23:47:00,63.8,34.7,30.10,ESE,113,0.0,1.3,34,0.00,,,0.00,WUHU216HW,2013-05-04 03:47:00,
2013-05-03 23:52:00,63.5,35.1,30.10,SE,135,0.0,0.8,35,0.00,,,0.00,WUHU216HW,2013-05-04 03:52:00,
2013-05-03 23:57:00,63.5,35.1,30.10,SE,135,0.0,0.2,35,0.00,,,0.00,WUHU216HW,2013-05-04 03:57:00,